Temperature
19 19 19 19 19 19 19 19 19 19 19 19 19 19 19 19 19 19 19 19 18 18 18 18 18 18 18 18 18 18 18 18 18 18 17 17 17 17 17 17 17 17 17
20 19 19 19 19 19 19 19 19 19 19 19 19 19 19 19 19 19 18 18 18 18 18 18 18 18 18 18 18 18 17 17 17 17 17 17 17 17 17 17 17 17 17
20 20 20 19 19 19 19 19 19 19 19 19 19 19 19 18 18 18 18 18 18 18 18 18 18 18 18 18 17 17 17 17 17 17 17 17 17 17 17 17 17 17 17
20 20 20 19 19 19 19 19 19 19 19 19 19 18 18 18 18 18 18 18 18 18 18 18 18 18 18 18 17 17 17 17 17 17 17 17 17 17 17 17 17 17 17
20 20 20 20 19 19 19 19 19 19 18 18 18 18 18 18 18 18 18 18 18 18 18 18 18 18 18 17 17 17 17 17 17 17 17 17 17 17 17 17 17 17 17
20 20 20 20 20 19 19 19 19 19 18 18 18 18 18 18 18 18 18 18 18 18 18 18 18 18 17 17 17 17 17 17 17 17 17 17 17 17 17 17 17 17 17
21 20 20 20 20 19 19 19 19 19 18 18 18 18 18 18 18 18 18 18 18 18 18 18 18 18 17 17 17 17 17 17 17 17 17 17 17 17 17 17 17 17 17
21 20 20 20 20 20 19 19 19 19 18 18 18 18 18 18 18 18 18 18 18 18 18 18 18 18 17 17 17 17 17 17 17 17 17 17 17 17 17 17 17 17 17
21 21 20 20 20 20 19 19 19 19 19 18 18 18 18 18 18 18 18 18 18 18 18 18 18 17 17 17 17 17 17 17 17 17 17 17 17 17 17 17 17 17 17
21 21 20 20 20 20 19 19 19 19 19 18 18 18 18 18 18 18 18 18 18 18 18 18 18 18 17 17 17 17 17 17 17 17 17 17 17 17 17 17 17 17 17
20 20 20 20 20 19 19 19 19 19 18 18 18 18 18 18 18 18 18 18 18 18 18 18 18 18 17 17 17 17 17 17 17 17 17 17 17 17 17 17 17 17 17
20 20 20 20 20 19 19 19 19 19 18 18 18 18 18 18 18 18 18 18 18 18 18 18 18 18 18 17 17 17 17 17 17 17 17 17 17 17 17 17 17 17 17
21 20 20 20 20 19 19 19 19 18 18 18 18 18 18 18 18 18 18 18 18 18 18 18 18 18 18 18 17 17 17 17 17 18 17 17 17 17 17 17 17 17 17
21 20 20 20 20 19 19 19 19 19 18 18 18 18 18 18 18 18 18 18 18 18 18 18 18 18 18 18 17 17 17 17 18 18 18 17 17 17 17 17 17 17 17
20 20 20 20 20 19 19 19 19 19 18 18 18 18 18 18 18 18 18 18 18 18 18 18 18 18 18 18 17 18 18 18 18 18 18 17 17 17 17 17 17 17 17
21 20 20 20 20 19 19 19 19 19 18 18 18 18 18 18 18 18 18 18 17 17 18 18 18 18 18 17 17 17 17 17 18 18 18 17 17 17 17 17 17 17 17
21 21 20 20 20 19 19 19 19 18 18 18 18 18 18 18 18 18 18 17 18 18 18 18 18 18 17 17 17 17 17 17 17 17 17 17 17 17 17 17 17 17 17
21 21 20 20 20 19 19 19 19 19 18 18 18 18 18 18 18 18 18 18 17 17 18 18 18 18 18 18 18 17 17 17 17 17 17 17 17 17 17 17 17 17 17
22 21 21 20 20 20 19 19 19 19 18 18 18 18 18 18 18 18 18 18 17 18 18 18 18 18 18 18 18 18 17 17 17 17 17 17 17 17 17 17 17 17 17
22 21 21 20 20 20 19 19 19 19 18 18 18 18 18 18 18 18 18 18 18 18 18 18 18 18 18 18 18 18 18 18 17 17 17 17 17 17 17 17 17 17 17
21 21 21 20 20 20 19 19 19 19 18 18 18 18 18 18 18 18 18 18 18 18 18 18 18 18 18 18 18 18 18 18 18 17 17 17 17 17 17 17 17 17 17
22 21 21 20 20 20 19 19 19 19 18 18 18 18 18 17 18 18 18 18 18 18 18 18 18 18 18 18 18 18 17 18 18 18 17 17 17 17 17 17 17 17 17
21 21 21 20 20 20 19 19 19 18 18 18 18 18 18 17 17 17 18 17 17 17 18 18 18 18 18 18 18 17 17 18 18 18 18 18 17 17 17 17 17 17 17
22 21 21 20 20 20 19 19 19 19 18 18 18 18 17 17 17 17 18 18 17 17 17 17 17 17 17 17 17 17 17 18 17 17 18 18 17 17 17 17 17 17 17
22 21 21 20 20 19 19 19 19 18 18 18 18 18 17 17 17 17 17 17 17 17 17 17 17 17 17 17 17 17 17 17 17 17 17 17 17 17 17 17 17 17 17
22 21 21 20 20 19 19 19 19 18 18 18 18 18 17 17 17 17 17 17 17 17 17 17 17 17 17 17 17 17 17 17 17 17 17 17 17 17 17 17 17 17 17
Wind_Speed
5 10 16 16 15 15 15 16 16 16 16 17 17 17 17 17 17 17 17 16 16 16 16 17 17 18 18 18 18 18 17 17 17 17 17 17 18 18 18 18 17 16 18
9 13 16 16 16 15 15 15 15 15 16 16 16 16 16 16 16 16 16 16 15 15 16 16 16 17 17 17 17 17 17 17 17 17 16 16 16 17 17 17 16 15 18
11 14 16 16 16 15 15 15 15 15 15 15 15 15 15 15 15 15 15 15 15 15 15 15 15 16 16 16 16 16 16 17 17 16 16 14 15 16 16 17 17 17 17
14 15 15 16 16 15 15 15 15 14 15 15 15 15 15 14 14 14 15 15 14 14 14 14 14 14 14 14 14 15 15 16 16 15 13 13 14 16 16 16 17 16 16
13 15 17 17 16 15 15 14 14 14 14 14 14 14 14 14 14 14 14 14 14 14 13 13 13 13 13 13 13 13 14 15 15 14 13 13 13 15 16 16 16 16 15
11 15 17 17 16 15 15 14 14 14 14 14 14 14 14 14 14 14 14 14 13 13 12 12 12 12 12 11 11 12 13 14 14 13 13 13 13 15 15 15 15 15 15
11 13 16 17 16 15 15 14 14 14 14 14 13 14 14 13 13 14 13 13 13 12 11 11 11 11 11 10 10 11 12 14 13 13 12 12 13 15 15 14 14 15 15
13 13 15 17 16 15 15 14 14 14 13 13 13 13 13 13 13 13 13 12 11 11 10 10 9 9 9 9 9 11 12 13 12 12 11 12 14 15 14 14 13 14 14
14 12 12 14 15 15 15 14 14 13 13 12 12 12 12 12 12 12 12 11 10 10 9 9 8 7 7 7 8 9 11 12 13 12 12 12 14 14 14 13 13 13 13
11 10 10 12 12 13 13 14 13 13 12 12 12 12 12 12 11 11 10 10 9 9 8 7 6 5 4 5 6 9 11 12 11 11 11 12 14 13 13 13 12 12 12
11 8 9 10 11 11 12 13 13 12 12 11 10 11 10 9 9 9 9 8 8 7 6 6 5 3 2 3 5 8 10 9 11 11 11 13 14 13 13 12 12 12 12
12 10 9 9 10 11 10 11 11 10 10 9 8 8 8 8 8 8 8 7 7 6 5 4 2 1 1 2 4 7 8 10 10 10 11 14 14 13 13 12 11 11 11
13 12 10 10 11 10 8 10 8 8 9 8 9 9 8 7 7 7 5 4 4 4 3 2 2 2 2 1 2 5 7 8 9 10 11 14 14 13 13 12 11 11 11
12 12 11 10 9 10 10 8 8 7 7 7 9 9 8 6 5 6 5 5 4 3 3 3 3 3 2 2 4 6 7 7 9 10 12 14 13 13 13 12 12 11 11
11 11 11 10 9 8 8 6 7 7 7 8 8 9 9 6 5 5 5 5 5 5 4 3 3 2 1 1 5 7 7 8 10 10 11 14 14 13 13 12 12 11 11
11 10 10 9 8 8 6 4 5 7 8 8 8 9 9 8 6 5 4 4 4 6 6 4 4 3 2 2 3 6 8 9 10 10 11 13 14 13 13 13 12 12 12
12 10 10 10 8 8 7 6 6 7 8 7 8 9 9 8 7 6 4 3 4 6 5 3 2 2 1 1 2 3 6 8 9 11 12 12 13 14 14 14 13 13 13
11 10 10 9 8 7 6 6 6 7 7 7 8 8 9 9 8 6 4 3 5 4 3 2 2 2 1 1 1 2 3 5 8 10 11 12 12 12 14 15 15 14 14
12 11 9 8 8 7 6 5 6 6 6 6 7 7 7 8 8 6 4 3 4 3 2 2 2 2 2 1 2 2 2 3 5 8 9 12 13 13 13 15 16 15 14
11 10 9 8 7 6 4 3 3 3 3 4 5 7 7 7 7 5 3 3 3 2 1 2 2 1 2 2 1 1 2 3 3 4 7 9 11 13 14 13 13 14 15
9 9 9 8 7 6 4 3 3 3 3 3 4 6 7 6 5 4 3 3 3 3 3 3 2 2 1 1 1 2 3 2 3 4 4 5 7 11 13 14 14 13 13
10 9 8 8 7 6 4 3 3 3 3 3 3 4 6 6 5 4 3 2 3 2 3 3 3 2 1 2 3 1 2 4 3 3 3 4 5 7 9 13 13 14 13
10 9 9 8 7 6 5 3 2 2 1 1 2 2 4 6 6 5 5 4 3 3 3 4 4 4 2 1 2 3 3 3 3 3 2 2 3 4 5 9 12 14 14
10 8 7 6 5 5 5 5 4 4 3 3 3 3 3 5 6 6 5 4 4 3 3 4 4 3 4 2 1 1 3 4 2 2 3 2 2 3 4 5 8 11 12
9 8 7 7 5 5 5 5 5 3 3 2 2 3 3 3 4 5 5 4 3 3 4 3 3 3 3 3 2 2 1 1 2 2 2 3 2 2 4 4 4 6 9
8 8 7 7 5 5 5 5 5 4 3 3 2 3 3 2 2 4 4 4 4 3 4 4 3 4 3 3 3 3 2 2 2 3 3 3 3 3 2 2 3 4 7
Wind_Direction
129 127 118 112 109 105 101 98 95 92 91 92 92 94 95 96 98 99 101 102 103 102 103 104 106 108 109 111 112 113 115 116 117 119 120 121 121 119 116 115 114 112 116
140 129 120 116 112 109 105 102 99 96 95 96 96 97 98 99 100 100 101 102 104 104 104 105 105 107 109 110 111 113 114 114 114 116 117 119 119 118 117 117 115 117 117
129 126 123 119 117 114 110 106 104 101 99 98 99 100 100 100 101 101 103 104 105 105 105 105 105 106 108 109 109 112 115 116 114 111 109 108 114 116 117 118 118 119 119
127 125 125 122 120 117 114 110 107 105 103 102 101 102 102 102 102 103 104 105 106 105 105 105 106 105 106 107 108 112 116 119 115 111 107 109 114 116 116 117 118 118 119
123 126 129 126 123 120 118 114 111 109 107 105 105 104 104 104 103 102 104 105 106 106 105 106 105 105 105 105 106 110 115 118 115 110 106 109 114 119 117 118 119 119 119
124 129 132 129 127 124 121 118 115 113 110 109 108 107 106 105 105 105 105 106 106 106 107 107 106 105 104 104 105 109 116 117 113 111 110 113 118 121 120 120 120 120 121
131 133 134 132 131 128 125 122 120 117 114 112 111 110 109 109 109 108 108 108 108 108 108 108 108 108 105 103 101 107 117 119 118 116 115 117 122 124 121 122 123 122 122
136 135 137 136 135 133 130 127 124 122 120 118 117 116 116 115 113 112 112 112 111 110 110 110 112 112 106 100 99 104 120 124 125 125 122 124 128 128 127 127 126 126 127
136 136 138 140 140 138 136 133 130 127 126 125 125 124 122 120 119 118 117 116 114 113 113 113 114 114 106 99 98 105 119 123 124 131 132 132 135 134 132 133 132 132 133
140 143 145 142 142 142 142 140 138 136 135 134 134 133 131 128 126 123 122 123 121 118 118 119 120 115 101 93 97 110 120 122 129 132 135 140 141 141 139 139 139 139 139
151 156 152 149 150 149 149 149 147 146 145 144 143 141 136 133 133 133 134 134 132 129 129 129 128 119 90 70 85 110 117 121 133 137 144 148 148 147 146 146 146 146 146
162 169 166 162 163 163 158 153 155 155 154 152 153 151 150 156 157 152 151 149 147 148 147 147 153 153 39 27 67 107 121 124 132 143 153 155 152 150 150 151 153 155 154
166 168 170 168 170 170 156 159 166 164 165 168 172 174 172 167 166 159 156 162 162 167 175 187 221 262 273 301 109 129 143 135 145 152 160 161 158 156 157 159 161 162 161
164 167 168 168 168 170 160 166 170 169 175 176 178 174 167 161 162 169 175 188 197 202 208 207 232 260 264 233 164 156 153 148 153 156 165 167 166 165 166 168 170 170 170
160 164 166 166 165 161 159 170 170 171 176 180 176 174 170 168 175 179 184 193 208 208 203 206 219 219 222 188 157 158 161 157 158 163 172 174 174 175 175 176 178 178 178
161 163 164 162 160 154 159 166 167 169 173 174 173 180 180 176 174 172 173 180 199 201 200 194 193 186 191 155 134 153 162 159 168 173 176 179 182 183 184 185 186 187 188
159 159 162 163 156 154 157 161 160 163 166 171 175 179 179 177 175 169 169 176 191 190 185 174 158 152 140 120 125 146 157 164 177 181 184 184 188 192 192 192 193 196 198
157 159 165 166 156 154 154 154 152 154 158 170 175 177 177 181 181 173 172 189 191 178 161 148 150 136 131 126 145 172 167 175 187 189 191 193 195 198 202 203 203 204 207
161 162 166 160 157 158 154 150 145 146 154 166 172 179 186 186 185 178 174 185 179 161 158 179 159 158 171 175 188 191 189 188 191 194 198 202 203 206 207 212 212 212 215
160 161 163 161 161 158 150 133 124 129 153 164 172 190 190 186 180 173 174 186 175 155 163 161 153 161 181 191 217 216 237 224 211 201 203 205 207 209 210 212 214 218 221
156 159 164 163 168 160 156 154 153 166 176 179 187 195 192 188 178 170 175 178 177 176 190 177 159 164 198 151 81 351 325 283 237 222 210 197 202 208 209 212 214 217 223
165 166 165 168 170 172 173 170 168 162 177 181 186 187 193 191 185 185 177 186 191 177 184 184 165 161 210 158 142 104 344 335 312 249 220 206 205 203 205 212 214 215 221
168 173 172 174 172 173 167 144 128 111 105 156 194 203 201 194 193 193 191 195 201 188 195 202 185 172 197 229 162 153 159 231 290 316 272 224 206 198 207 212 216 220 221
176 169 159 165 167 167 161 159 160 169 188 207 201 204 204 200 201 201 199 203 200 189 198 210 192 181 174 208 226 197 185 172 175 292 320 294 244 221 213 216 219 219 222
162 158 152 154 161 159 162 167 167 181 201 206 189 193 207 216 212 210 206 203 197 193 200 207 191 180 175 180 190 196 188 165 172 176 266 300 311 264 230 215 215 214 219
149 148 148 150 156 162 167 171 177 186 196 193 196 197 212 223 224 224 214 204 199 196 200 205 200 191 187 180 182 181 177 183 204 188 222 253 267 278 261 230 216 213 217
Height
1549 1549 1550 1550 1550 1550 1550 1550 1550 1550 1550 1550 1550 1550 1551 1551 1551 1552 1552 1553 1553 1554 1554 1555 1555 1556 1556 1557 1558 1559 1559 1560 1561 1561 1562 1563 1564 1564 1565 1566 1566 1567 1568
1549 1550 1551 1551 1551 1552 1552 1552 1552 1552 1552 1552 1552 1552 1553 1553 1553 1554 1554 1554 1555 1555 1556 1557 1557 1558 1558 1559 1560 1561 1561 1562 1562 1563 1564 1564 1565 1566 1566 1567 1568 1569 1570
1550 1551 1552 1552 1553 1553 1553 1553 1554 1554 1554 1554 1554 1554 1555 1555 1555 1556 1556 1556 1557 1557 1558 1559 1559 1560 1561 1561 1562 1563 1563 1564 1564 1565 1566 1566 1567 1567 1568 1569 1570 1571 1572
1551 1552 1553 1554 1554 1554 1555 1555 1555 1555 1556 1556 1556 1556 1557 1557 1557 1558 1558 1558 1559 1560 1560 1561 1561 1562 1563 1563 1564 1565 1565 1566 1566 1567 1567 1568 1568 1569 1570 1571 1572 1572 1573
1552 1553 1554 1555 1555 1556 1556 1556 1557 1557 1557 1558 1558 1558 1559 1559 1560 1560 1560 1560 1561 1562 1562 1563 1564 1564 1565 1565 1566 1567 1567 1568 1568 1569 1569 1570 1570 1571 1572 1573 1573 1574 1575
1553 1554 1555 1556 1557 1557 1558 1558 1559 1559 1559 1560 1560 1560 1561 1561 1561 1562 1562 1563 1563 1564 1564 1565 1566 1566 1567 1568 1568 1569 1569 1570 1570 1571 1571 1572 1572 1573 1574 1575 1575 1576 1577
1554 1555 1557 1558 1558 1559 1559 1560 1560 1561 1561 1561 1562 1562 1563 1563 1563 1564 1564 1565 1565 1566 1566 1567 1568 1569 1569 1570 1570 1571 1571 1572 1572 1573 1573 1574 1574 1575 1576 1576 1577 1578 1579
1555 1557 1558 1559 1560 1560 1561 1561 1562 1562 1563 1563 1564 1564 1565 1565 1565 1566 1566 1567 1567 1568 1569 1569 1570 1571 1572 1572 1573 1573 1574 1574 1574 1575 1575 1576 1576 1577 1577 1578 1579 1580 1580
1557 1558 1559 1560 1561 1562 1562 1563 1563 1564 1564 1565 1565 1566 1566 1567 1567 1568 1568 1569 1569 1570 1571 1571 1572 1573 1574 1575 1575 1575 1576 1576 1576 1577 1577 1578 1578 1579 1579 1580 1581 1581 1582
1558 1559 1560 1561 1562 1563 1563 1564 1565 1565 1566 1567 1567 1568 1568 1569 1569 1570 1571 1571 1571 1572 1573 1573 1574 1575 1576 1577 1577 1577 1577 1578 1578 1579 1579 1579 1580 1580 1581 1581 1582 1583 1583
1559 1560 1561 1562 1563 1564 1564 1565 1566 1567 1567 1568 1569 1569 1570 1570 1571 1572 1572 1573 1573 1574 1575 1575 1576 1577 1578 1579 1579 1579 1579 1579 1580 1580 1580 1581 1581 1581 1582 1583 1583 1584 1584
1559 1560 1562 1562 1563 1564 1565 1566 1567 1568 1568 1569 1570 1570 1571 1572 1573 1573 1574 1575 1575 1576 1576 1577 1578 1579 1580 1580 1580 1580 1581 1581 1581 1581 1582 1582 1582 1582 1583 1584 1584 1585 1585
1558 1560 1562 1563 1564 1565 1566 1567 1568 1569 1569 1570 1571 1572 1572 1573 1573 1574 1575 1576 1577 1577 1578 1579 1579 1580 1581 1581 1581 1581 1582 1582 1582 1582 1582 1583 1583 1583 1584 1584 1585 1586 1586
1558 1560 1561 1563 1564 1565 1566 1567 1568 1569 1570 1571 1572 1572 1573 1573 1574 1575 1576 1577 1578 1578 1579 1580 1580 1581 1582 1582 1582 1582 1582 1583 1583 1583 1583 1583 1584 1584 1584 1585 1585 1586 1586
1558 1559 1561 1562 1563 1565 1566 1567 1568 1569 1570 1571 1572 1572 1573 1574 1574 1575 1576 1577 1578 1579 1579 1580 1581 1581 1582 1582 1582 1582 1583 1583 1584 1584 1584 1584 1584 1584 1585 1585 1586 1586 1586
1557 1559 1561 1562 1563 1565 1566 1567 1568 1568 1570 1571 1572 1572 1573 1574 1574 1575 1576 1577 1577 1578 1579 1580 1581 1581 1582 1583 1583 1583 1583 1584 1584 1584 1584 1584 1584 1585 1585 1585 1586 1586 1587
1556 1558 1560 1561 1563 1564 1565 1566 1567 1568 1569 1570 1571 1572 1573 1573 1574 1575 1576 1577 1577 1578 1579 1580 1580 1581 1582 1582 1582 1583 1583 1583 1584 1584 1584 1584 1585 1585 1585 1585 1585 1586 1586
1556 1557 1559 1560 1562 1563 1564 1565 1566 1567 1568 1569 1570 1571 1572 1573 1573 1574 1575 1576 1577 1578 1578 1579 1580 1580 1581 1581 1582 1582 1582 1583 1583 1583 1584 1584 1584 1584 1585 1585 1585 1585 1585
1554 1556 1558 1559 1561 1562 1564 1565 1566 1567 1568 1568 1569 1570 1571 1572 1572 1573 1574 1575 1576 1577 1577 1578 1579 1580 1580 1581 1581 1581 1582 1582 1582 1582 1583 1583 1584 1584 1584 1584 1584 1584 1584
1554 1555 1557 1558 1560 1561 1562 1564 1565 1566 1567 1567 1568 1569 1570 1570 1571 1572 1573 1574 1575 1575 1576 1577 1577 1578 1579 1580 1580 1580 1581 1581 1581 1581 1581 1582 1582 1582 1583 1583 1583 1583 1583
1553 1554 1555 1556 1558 1559 1560 1562 1563 1564 1565 1566 1566 1567 1568 1569 1570 1571 1571 1572 1573 1574 1575 1575 1576 1577 1577 1578 1579 1579 1579 1579 1579 1580 1580 1580 1580 1580 1581 1581 1581 1581 1581
1551 1552 1553 1555 1556 1558 1559 1561 1562 1563 1563 1564 1564 1565 1566 1567 1568 1568 1569 1570 1571 1572 1573 1574 1574 1575 1576 1577 1577 1577 1577 1578 1577 1578 1578 1578 1578 1578 1579 1579 1579 1579 1579
1550 1551 1553 1554 1556 1557 1558 1559 1560 1561 1561 1562 1562 1563 1564 1564 1565 1566 1567 1568 1569 1570 1570 1572 1573 1573 1574 1575 1575 1576 1576 1575 1575 1576 1575 1575 1575 1576 1576 1576 1576 1577 1577
1549 1551 1552 1554 1555 1556 1557 1558 1558 1558 1559 1559 1560 1561 1561 1562 1563 1564 1565 1565 1566 1567 1568 1569 1570 1571 1572 1573 1573 1574 1574 1574 1574 1573 1574 1573 1573 1573 1573 1574 1574 1574 1574
1549 1550 1551 1553 1554 1555 1556 1556 1556 1557 1557 1558 1558 1558 1559 1560 1560 1561 1562 1563 1564 1565 1566 1567 1568 1569 1569 1570 1571 1571 1572 1572 1572 1572 1571 1571 1571 1571 1571 1571 1571 1571 1571
1548 1550 1551 1552 1553 1554 1554 1555 1555 1555 1555 1556 1556 1556 1556 1557 1558 1559 1560 1561 1562 1563 1563 1565 1566 1566 1567 1568 1568 1569 1569 1569 1569 1570 1569 1568 1568 1568 1568 1568 1568 1568 1568